Regional Weather Roundup
Issued by NWS

Home | Current Version | Previous Version | Graphics & Text | Print | Product List | Glossary On
Versions: 1 2 3 4 5 6 7 8 9 10 11 12 13 14 15 16 17 18 19 20 21 22 23 24 25 26 27 28 29 30 31 32 33 34 35 36 37 38 39 40 41 42 43 44 45 46 47 48 49
000
ASUS45 KCYS 291510
RWRWY

WYOMING REGIONAL WEATHER ROUNDUP
NATIONAL WEATHER SERVICE CHEYENNE WY
900 AM MDT SUN MAR 29 2015

NOTE:  "FAIR" INDICATES FEW OR NO CLOUDS BELOW 12,000 FEET
WITH NO SIGNIFICANT WEATHER AND/OR OBSTRUCTIONS TO VISIBILITY.

WYZ001-291600-
YELLOWSTONE NATIONAL PARK

CITY           SKY/WX    TMP DP  RH WIND       PRES   REMARKS
LK YELLOWSTONE   N/A     23  17  78 E3        30.36R
W YELLOWSTONE  NOT AVBL

$$
WYZ002>013-054>058-071-098>099-291600-
NORTHERN WYOMING

CITY           SKY/WX    TMP DP  RH WIND       PRES   REMARKS
JACKSON        SUNNY     28  21  74 CALM      30.37R
CODY           FAIR      46  16  29 SW23      30.22F
GREYBULL       FAIR      43  23  45 SE6       30.24F
WORLAND        FAIR      44  22  41 S5        30.26S
SHERIDAN       FAIR      46  26  45 CALM      30.23F
BUFFALO        FAIR      46  24  42 SE6       30.24F
GILLETTE       FAIR      46  27  47 NW17      30.23F
HULETT         FAIR      43  34  70 W8        30.22F
NEWCASTLE      FAIR      43  30  61 NW24G37   30.21S

$$
WYZ014>020-022>026-101>103-291600-
CENTRAL WYOMING

CITY           SKY/WX    TMP DP  RH WIND       PRES   REMARKS
BIG PINEY      FAIR      32  17  54 E3        30.37R
PINEDALE       FAIR      32  21  64 CALM      30.38R
DUBOIS         FAIR      32  14  47 NW12      30.30S WCI  23
LANDER         FAIR      41  20  43 E3        30.28S
RIVERTON       FAIR      42  16  34 SW12      30.30S
CASPER         FAIR      42  21  43 SW9       30.30R
DOUGLAS        FAIR      45  25  45 NW16      30.29S

$$
WYZ021-027>030-104>119-291600-
SOUTHERN WYOMING

CITY           SKY/WX    TMP DP  RH WIND       PRES   REMARKS
EVANSTON       FAIR      37  19  48 NE5       30.35R WCI  33
FORT BRIDGER   FAIR      42  13  31 CALM      30.38S
ROCK SPRINGS   FAIR      38  19  46 CALM      30.36S
DIXON          FAIR      38  22  53 SE5       30.38S WCI  35
RAWLINS        FAIR      40  17  39 VRB5      30.34S
SARATOGA       FAIR      37  19  48 MISG      30.35S
LARAMIE        FAIR      38  14  37 NW10      30.31F WCI  31
CHEYENNE       FAIR      43  17  35 N16G24    30.29S
TORRINGTON     FAIR      49  26  41 NW20G29   30.27S
PINE BLUFFS    FAIR      45  27  49 N24G31    30.28S

$$


USA.gov is the U.S. government's official web portal to all federal, state and local government web resources and services.